| time (UTC) | temp F | wind direction | speed knots | gust knots | rain 1hr in | rain 24hr in | rain mn in | humidity % | barometer mb |
| 20260503001054 | 47 | 329 | 5.2 | 13.0 | 0.00 | 0.04 | 0.02 | 75 | 1017.5 |
| 20260503000549 | 46 | 312 | 6.1 | 12.2 | 0.00 | 0.04 | 0.02 | 75 | 1017.5 |
| 20260503000054 | 46 | 333 | 7.0 | 10.4 | 0.00 | 0.04 | 0.02 | 77 | 1017.7 |
| 20260502235552 | 46 | 344 | 4.3 | 12.2 | 0.00 | 0.04 | 0.02 | 77 | 1017.6 |
| 20260502235049 | 46 | 329 | 7.0 | 14.8 | 0.00 | 0.04 | 0.02 | 78 | 1017.6 |
| 20260502234548 | 46 | 296 | 11.3 | 15.6 | 0.00 | 0.04 | 0.02 | 78 | 1017.8 |
| 20260502234046 | 46 | 323 | 12.2 | 15.6 | 0.00 | 0.04 | 0.02 | 78 | 1018.0 |
| 20260502233547 | 46 | 325 | 10.4 | 17.4 | 0.00 | 0.04 | 0.02 | 78 | 1018.0 |
| 20260502233043 | 47 | 324 | 11.3 | 17.4 | 0.01 | 0.04 | 0.02 | 77 | 1018.1 |
| 20260502232543 | 47 | 293 | 11.3 | 16.5 | 0.02 | 0.04 | 0.02 | 77 | 1018.2 |
| 20260502232041 | 47 | 319 | 9.6 | 13.0 | 0.02 | 0.04 | 0.02 | 76 | 1018.2 |
| 20260502231541 | 47 | 347 | 7.0 | 13.9 | 0.02 | 0.04 | 0.02 | 76 | 1018.2 |
| 20260502231042 | 47 | 341 | 9.6 | 13.9 | 0.02 | 0.04 | 0.02 | 76 | 1018.3 |
| 20260502230546 | 47 | 325 | 3.5 | 9.6 | 0.02 | 0.04 | 0.02 | 79 | 1018.3 |
| 20260502230041 | 47 | 31 | 0.9 | 3.5 | 0.02 | 0.04 | 0.02 | 79 | 1018.3 |
| 20260502225539 | 47 | 53 | 0.9 | 7.0 | 0.02 | 0.04 | 0.02 | 79 | 1018.3 |
| 20260502225039 | 47 | 355 | 1.7 | 12.2 | 0.02 | 0.04 | 0.02 | 79 | 1018.4 |
| 20260502224539 | 47 | 17 | 1.7 | 12.2 | 0.02 | 0.04 | 0.02 | 79 | 1018.5 |
| 20260502224037 | 47 | 10 | 6.1 | 17.4 | 0.02 | 0.04 | 0.02 | 78 | 1018.4 |
| 20260502223538 | 48 | 340 | 9.6 | 22.6 | 0.02 | 0.04 | 0.02 | 76 | 1018.2 |
| 20260502223035 | 49 | 355 | 13.9 | 22.6 | 0.02 | 0.03 | 0.02 | 74 | 1019.1 |
| 20260502222534 | 49 | 34 | 3.5 | 7.8 | 0.01 | 0.02 | 0.01 | 73 | 1018.8 |
| 20260502222033 | 49 | 355 | 2.6 | 10.4 | 0.01 | 0.02 | 0.01 | 71 | 1018.5 |
| 20260502221532 | 49 | 16 | 6.1 | 13.0 | 0.01 | 0.02 | 0.01 | 69 | 1018.7 |
| 20260502221030 | 50 | 31 | 6.1 | 13.0 | 0.01 | 0.02 | 0.01 | 66 | 1018.6 |
| 20260502220528 | 51 | 17 | 6.1 | 8.7 | 0.00 | 0.02 | 0.00 | 61 | 1018.9 |
| 20260502220030 | 51 | 10 | 2.6 | 5.2 | 0.00 | 0.02 | 0.00 | 60 | 1018.8 |
| 20260502215528 | 51 | 360 | 1.7 | 7.0 | 0.00 | 0.02 | 0.00 | 60 | 1018.8 |
| 20260502215028 | 50 | 350 | 0.0 | 13.9 | 0.00 | 0.02 | 0.00 | 61 | 1018.8 |
| 20260502214527 | 51 | 98 | 2.6 | 19.1 | 0.00 | 0.02 | 0.00 | 60 | 1018.8 |
| 20260502214031 | 50 | 338 | 6.1 | 11.3 | 0.00 | 0.02 | 0.00 | 60 | 1018.8 |
| 20260502213525 | 50 | 360 | 5.2 | 9.6 | 0.00 | 0.02 | 0.00 | 59 | 1018.8 |
| 20260502213037 | 51 | 343 | 7.0 | 9.6 | 0.00 | 0.02 | 0.00 | 59 | 1018.7 |
| 20260502212525 | 51 | 331 | 4.3 | 8.7 | 0.00 | 0.02 | 0.00 | 59 | 1018.7 |
| 20260502212024 | 51 | 343 | 6.1 | 10.4 | 0.00 | 0.02 | 0.00 | 59 | 1018.7 |
| 20260502211529 | 51 | 325 | 6.1 | 11.3 | 0.00 | 0.02 | 0.00 | 59 | 1018.7 |
| 20260502211023 | 51 | 355 | 7.0 | 11.3 | 0.00 | 0.02 | 0.00 | 59 | 1018.6 |
| 20260502210521 | 50 | 345 | 5.2 | 9.6 | 0.00 | 0.02 | 0.00 | 59 | 1018.6 |
| 20260502210020 | 50 | 350 | 5.2 | 8.7 | 0.00 | 0.02 | 0.02 | 58 | 1018.7 |
| 20260502205521 | 50 | 342 | 6.1 | 8.7 | 0.00 | 0.02 | 0.02 | 57 | 1018.7 |
| 20260502205020 | 50 | 11 | 5.2 | 8.7 | 0.00 | 0.02 | 0.02 | 57 | 1018.7 |
| 20260502204521 | 50 | 10 | 5.2 | 8.7 | 0.00 | 0.02 | 0.02 | 57 | 1018.8 |
| 20260502204019 | 51 | 355 | 1.7 | 4.3 | 0.00 | 0.02 | 0.02 | 56 | 1018.9 |
| 20260502203518 | 51 | 35 | 2.6 | 7.8 | 0.00 | 0.02 | 0.02 | 55 | 1018.9 |
| 20260502203020 | 51 | 329 | 4.3 | 7.8 | 0.00 | 0.02 | 0.02 | 54 | 1019.0 |
| 20260502202517 | 51 | 355 | 4.3 | 8.7 | 0.00 | 0.02 | 0.02 | 53 | 1019.0 |
| 20260502202017 | 52 | 351 | 5.2 | 8.7 | 0.00 | 0.02 | 0.02 | 51 | 1019.0 |
| 20260502201524 | 52 | 26 | 3.5 | 7.8 | 0.00 | 0.02 | 0.02 | 51 | 1019.0 |
| 20260502201017 | 52 | 17 | 3.5 | 6.1 | 0.00 | 0.02 | 0.02 | 51 | 1019.0 |
| 20260502200517 | 52 | 342 | 2.6 | 8.7 | 0.00 | 0.02 | 0.02 | 51 | 1019.0 |
| 20260502200018 | 52 | 49 | 4.3 | 9.6 | 0.00 | 0.02 | 0.02 | 50 | 1019.0 |
| 20260502195517 | 52 | 355 | 6.1 | 9.6 | 0.00 | 0.02 | 0.02 | 50 | 1019.1 |
| 20260502195015 | 52 | 43 | 4.3 | 11.3 | 0.00 | 0.02 | 0.02 | 50 | 1019.1 |
| 20260502194516 | 52 | 28 | 4.3 | 12.2 | 0.00 | 0.02 | 0.02 | 50 | 1019.1 |
| 20260502194017 | 52 | 10 | 6.1 | 12.2 | 0.00 | 0.02 | 0.02 | 50 | 1019.1 |
| 20260502193515 | 52 | 28 | 7.8 | 13.0 | 0.00 | 0.02 | 0.02 | 50 | 1019.1 |
| 20260502193016 | 52 | 17 | 8.7 | 13.0 | 0.00 | 0.02 | 0.02 | 49 | 1019.1 |
| 20260502192515 | 52 | 26 | 6.1 | 13.0 | 0.00 | 0.02 | 0.02 | 49 | 1019.0 |
| 20260502192014 | 52 | 33 | 7.8 | 16.5 | 0.00 | 0.02 | 0.02 | 49 | 1019.1 |
| 20260502191514 | 52 | 26 | 10.4 | 16.5 | 0.00 | 0.02 | 0.02 | 49 | 1019.0 |
| 20260502191014 | 52 | 43 | 5.2 | 9.6 | 0.00 | 0.02 | 0.02 | 50 | 1019.1 |
| 20260502190514 | 51 | 30 | 4.3 | 10.4 | 0.00 | 0.02 | 0.02 | 51 | 1019.1 |
| 20260502190020 | 51 | 26 | 7.0 | 10.4 | 0.00 | 0.02 | 0.02 | 50 | 1019.1 |
| 20260502185514 | 52 | 32 | 2.6 | 9.6 | 0.00 | 0.02 | 0.02 | 50 | 1019.1 |
| 20260502185014 | 52 | 42 | 5.2 | 9.6 | 0.00 | 0.02 | 0.02 | 50 | 1019.1 |
| 20260502184523 | 52 | 36 | 5.2 | 12.2 | 0.00 | 0.02 | 0.02 | 50 | 1019.1 |
| 20260502184013 | 52 | 40 | 5.2 | 12.2 | 0.00 | 0.02 | 0.02 | 50 | 1019.1 |
| 20260502183512 | 52 | 44 | 5.2 | 8.7 | 0.00 | 0.02 | 0.02 | 49 | 1018.9 |
| 20260502183012 | 52 | 36 | 2.6 | 9.6 | 0.00 | 0.02 | 0.02 | 50 | 1018.9 |
| 20260502182511 | 52 | 55 | 2.6 | 9.6 | 0.00 | 0.02 | 0.02 | 49 | 1018.9 |
| 20260502182012 | 52 | 13 | 4.3 | 8.7 | 0.00 | 0.02 | 0.02 | 50 | 1018.8 |
| 20260502181512 | 51 | 58 | 5.2 | 8.7 | 0.00 | 0.02 | 0.02 | 50 | 1018.9 |
| 20260502181011 | 51 | 35 | 4.3 | 8.7 | 0.00 | 0.02 | 0.02 | 51 | 1018.9 |
| 20260502180511 | 52 | 72 | 3.5 | 11.3 | 0.00 | 0.02 | 0.02 | 50 | 1018.9 |
| 20260502170509 | 53 | 10 | 4.3 | 7.8 | 0.00 | 0.02 | 0.02 | 48 | 1018.8 |
| 20260502164007 | 53 | 13 | 12.2 | 15.6 | 0.00 | 0.02 | 0.02 | 47 | 1018.7 |
| 20260502163507 | 54 | 10 | 6.1 | 13.0 | 0.00 | 0.02 | 0.02 | 47 | 1018.6 |
| 20260502163010 | 54 | 348 | 6.1 | 13.9 | 0.00 | 0.02 | 0.02 | 47 | 1018.7 |
| 20260502162507 | 54 | 86 | 7.0 | 13.9 | 0.00 | 0.02 | 0.02 | 46 | 1018.6 |
| 20260502162006 | 54 | 33 | 9.6 | 13.9 | 0.00 | 0.02 | 0.02 | 46 | 1018.6 |
| 20260502161506 | 54 | 22 | 7.0 | 17.4 | 0.00 | 0.02 | 0.02 | 46 | 1018.6 |
| 20260502161005 | 55 | 39 | 9.6 | 16.5 | 0.00 | 0.02 | 0.02 | 45 | 1018.6 |
| 20260502160504 | 54 | 23 | 7.0 | 18.2 | 0.00 | 0.02 | 0.02 | 46 | 1018.7 |
| 20260502152054 | 54 | 37 | 10.4 | 20.0 | 0.00 | 0.02 | 0.02 | 47 | 1019.0 |
| 20260502151603 | 54 | 25 | 12.2 | 20.0 | 0.00 | 0.02 | 0.02 | 47 | 1019.2 |
| 20260502151055 | 54 | 38 | 12.2 | 20.9 | 0.00 | 0.02 | 0.02 | 45 | 1019.1 |
| 20260502150553 | 55 | 41 | 13.0 | 21.7 | 0.00 | 0.02 | 0.02 | 44 | 1019.1 |
| 20260502130548 | 55 | 63 | 11.3 | 20.9 | 0.00 | 0.02 | 0.02 | 43 | 1019.2 |
| 20260502123645 | 54 | 14 | 13.9 | 21.7 | 0.00 | 0.02 | 0.02 | 46 | 1019.5 |
| 20260502123044 | 55 | 18 | 9.6 | 20.9 | 0.00 | 0.02 | 0.02 | 46 | 1019.5 |
| 20260502122644 | 55 | 59 | 12.2 | 22.6 | 0.00 | 0.02 | 0.02 | 46 | 1019.4 |
| 20260502122042 | 55 | 27 | 13.0 | 22.6 | 0.00 | 0.02 | 0.02 | 46 | 1019.3 |
| 20260502121543 | 55 | 19 | 12.2 | 22.6 | 0.00 | 0.02 | 0.02 | 46 | 1019.3 |
| 20260502121045 | 55 | 54 | 10.4 | 22.6 | 0.00 | 0.02 | 0.02 | 46 | 1019.4 |
| 20260502120544 | 55 | 62 | 12.2 | 23.5 | 0.00 | 0.02 | 0.02 | 45 | 1019.4 |
| 20260502115541 | 56 | 15 | 16.5 | 22.6 | 0.00 | 0.02 | 0.02 | 46 | 1019.3 |
| 20260502115045 | 56 | 40 | 13.0 | 23.5 | 0.00 | 0.02 | 0.02 | 46 | 1019.3 |
| 20260502114544 | 55 | 42 | 11.3 | 26.9 | 0.00 | 0.02 | 0.02 | 47 | 1019.6 |
| 20260502114039 | 55 | 45 | 13.9 | 26.9 | 0.00 | 0.02 | 0.02 | 48 | 1019.8 |
| 20260502113538 | 54 | 14 | 13.9 | 22.6 | 0.00 | 0.02 | 0.02 | 49 | 1019.6 |
| 20260502113038 | 55 | 27 | 13.0 | 22.6 | 0.00 | 0.02 | 0.02 | 49 | 1019.6 |
| 20260502112539 | 55 | 20 | 12.2 | 20.0 | 0.00 | 0.02 | 0.02 | 49 | 1019.5 |
| 20260502112037 | 56 | 46 | 11.3 | 20.9 | 0.00 | 0.02 | 0.02 | 49 | 1019.5 |
| 20260502111536 | 55 | 10 | 8.7 | 20.9 | 0.00 | 0.02 | 0.02 | 52 | 1019.5 |
| 20260502111036 | 55 | 55 | 8.7 | 18.2 | 0.00 | 0.02 | 0.02 | 52 | 1019.6 |
| 20260502110536 | 54 | 355 | 11.3 | 19.1 | 0.00 | 0.02 | 0.02 | 54 | 1019.8 |
| 20260502110039 | 53 | 84 | 13.0 | 22.6 | 0.00 | 0.02 | 0.02 | 56 | 1019.9 |
| 20260502105535 | 53 | 21 | 11.3 | 22.6 | 0.00 | 0.02 | 0.02 | 56 | 1020.0 |
| 20260502105036 | 53 | 85 | 11.3 | 21.7 | 0.00 | 0.02 | 0.02 | 56 | 1019.9 |
| 20260502104537 | 54 | 49 | 9.6 | 24.3 | 0.00 | 0.02 | 0.02 | 55 | 1020.0 |
| 20260502104035 | 54 | 43 | 11.3 | 24.3 | 0.00 | 0.02 | 0.02 | 55 | 1020.0 |
| 20260502103538 | 55 | 73 | 12.2 | 20.9 | 0.00 | 0.02 | 0.02 | 55 | 1020.0 |
| 20260502103034 | 54 | 62 | 10.4 | 18.2 | 0.00 | 0.02 | 0.02 | 56 | 1020.0 |
| 20260502102534 | 54 | 28 | 10.4 | 20.0 | 0.00 | 0.02 | 0.02 | 56 | 1020.1 |
| 20260502102034 | 54 | 58 | 12.2 | 20.9 | 0.00 | 0.02 | 0.02 | 56 | 1020.2 |
| 20260502101538 | 54 | 80 | 12.2 | 22.6 | 0.00 | 0.02 | 0.02 | 56 | 1020.0 |
| 20260502101033 | 54 | 33 | 14.8 | 22.6 | 0.00 | 0.02 | 0.02 | 57 | 1020.1 |
| 20260502100533 | 54 | 58 | 9.6 | 16.5 | 0.00 | 0.02 | 0.02 | 61 | 1020.1 |
| 20260502091528 | 53 | 347 | 7.8 | 13.9 | 0.00 | 0.02 | 0.02 | 61 | 1020.0 |
| 20260502091028 | 52 | 23 | 7.8 | 13.9 | 0.00 | 0.02 | 0.02 | 63 | 1020.0 |
| 20260502090526 | 52 | 19 | 8.7 | 14.8 | 0.00 | 0.02 | 0.02 | 63 | 1020.1 |
| 20260502071520 | 52 | 74 | 15.6 | 26.1 | 0.00 | 0.02 | 0.02 | 60 | 1019.8 |
| 20260502071019 | 53 | 61 | 13.0 | 27.8 | 0.00 | 0.02 | 0.02 | 60 | 1019.9 |
| 20260502070518 | 53 | 59 | 14.8 | 27.8 | 0.00 | 0.02 | 0.02 | 60 | 1019.9 |
| 20260502070018 | 53 | 34 | 13.0 | 21.7 | 0.00 | 0.02 | 0.02 | 59 | 1019.7 |
| 20260502065518 | 53 | 85 | 8.7 | 21.7 | 0.00 | 0.02 | 0.02 | 59 | 1019.7 |
| 20260502065017 | 53 | 31 | 11.3 | 20.9 | 0.00 | 0.02 | 0.02 | 60 | 1019.6 |
| 20260502064536 | 52 | 23 | 7.8 | 23.5 | 0.00 | 0.02 | 0.02 | 61 | 1019.7 |
| 20260502064018 | 52 | 70 | 11.3 | 23.5 | 0.00 | 0.02 | 0.02 | 61 | 1019.7 |
| 20260502063516 | 52 | 42 | 12.2 | 23.5 | 0.00 | 0.02 | 0.02 | 61 | 1019.7 |
| 20260502063018 | 53 | 26 | 9.6 | 21.7 | 0.00 | 0.02 | 0.02 | 61 | 1019.7 |
| 20260502062517 | 53 | 43 | 13.0 | 22.6 | 0.00 | 0.02 | 0.02 | 61 | 1019.7 |
| 20260502062017 | 53 | 47 | 11.3 | 22.6 | 0.00 | 0.02 | 0.02 | 61 | 1019.6 |
| 20260502061514 | 53 | 22 | 13.0 | 26.9 | 0.00 | 0.02 | 0.02 | 60 | 1019.7 |
| 20260502061014 | 54 | 62 | 16.5 | 26.9 | 0.01 | 0.02 | 0.02 | 59 | 1019.5 |
| 20260502060513 | 54 | 41 | 13.0 | 23.5 | 0.01 | 0.02 | 0.02 | 60 | 1019.5 |
| 20260502060014 | 53 | 82 | 10.4 | 21.7 | 0.01 | 0.02 | 0.02 | 61 | 1019.7 |
| 20260502055511 | 53 | 360 | 15.6 | 21.7 | 0.01 | 0.02 | 0.02 | 60 | 1019.6 |
| 20260502055009 | 53 | 41 | 13.0 | 21.7 | 0.01 | 0.02 | 0.02 | 62 | 1019.6 |
| 20260502054508 | 53 | 88 | 4.3 | 18.2 | 0.01 | 0.02 | 0.02 | 64 | 1019.5 |
| 20260502054007 | 52 | 29 | 9.6 | 18.2 | 0.01 | 0.02 | 0.02 | 65 | 1019.6 |
| 20260502053506 | 52 | 61 | 7.8 | 18.2 | 0.01 | 0.02 | 0.02 | 66 | 1019.6 |
| 20260502053005 | 51 | 31 | 11.3 | 20.0 | 0.01 | 0.02 | 0.02 | 66 | 1019.7 |
| 20260502052507 | 51 | 58 | 10.4 | 20.0 | 0.01 | 0.02 | 0.02 | 66 | 1019.7 |
| 20260502052003 | 51 | 61 | 11.3 | 21.7 | 0.01 | 0.02 | 0.02 | 67 | 1019.7 |
| 20260502051504 | 51 | 52 | 7.8 | 19.1 | 0.00 | 0.01 | 0.01 | 67 | 1019.7 |
| 20260502051002 | 51 | 65 | 9.6 | 18.2 | 0.00 | 0.01 | 0.01 | 67 | 1019.6 |
| 20260502050502 | 51 | 50 | 11.3 | 18.2 | 0.00 | 0.01 | 0.01 | 67 | 1019.7 |
| 20260502050001 | 51 | 63 | 10.4 | 20.9 | 0.00 | 0.01 | 0.01 | 68 | 1019.7 |
| 20260502045501 | 51 | 58 | 10.4 | 20.9 | 0.00 | 0.01 | 0.01 | 69 | 1019.7 |
| 20260502045058 | 51 | 19 | 8.7 | 19.1 | 0.00 | 0.01 | 0.01 | 69 | 1019.8 |
| 20260502044559 | 51 | 59 | 7.0 | 21.7 | 0.00 | 0.01 | 0.01 | 70 | 1019.8 |
| 20260502044100 | 51 | 26 | 8.7 | 21.7 | 0.00 | 0.01 | 0.01 | 70 | 1019.8 |
| 20260502043556 | 51 | 48 | 9.6 | 19.1 | 0.00 | 0.01 | 0.01 | 70 | 1019.8 |
| 20260502043056 | 51 | 61 | 9.6 | 17.4 | 0.00 | 0.01 | 0.01 | 71 | 1019.8 |
| 20260502042554 | 51 | 61 | 7.8 | 15.6 | 0.00 | 0.01 | 0.01 | 71 | 1019.7 |
| 20260502042053 | 51 | 59 | 9.6 | 17.4 | 0.00 | 0.01 | 0.01 | 71 | 1019.8 |
| 20260502041553 | 50 | 49 | 6.1 | 16.5 | 0.01 | 0.01 | 0.01 | 72 | 1019.8 |
| 20260502041052 | 50 | 78 | 7.8 | 16.5 | 0.01 | 0.01 | 0.01 | 73 | 1019.9 |
| 20260502040551 | 50 | 58 | 7.0 | 16.5 | 0.01 | 0.01 | 0.01 | 73 | 1019.8 |
| 20260502040103 | 50 | 32 | 7.0 | 14.8 | 0.01 | 0.01 | 0.01 | 74 | 1019.8 |
| 20260502035550 | 50 | 40 | 7.8 | 14.8 | 0.01 | 0.02 | 0.01 | 74 | 1019.8 |
| 20260502035051 | 50 | 56 | 7.8 | 15.6 | 0.01 | 0.02 | 0.01 | 74 | 1019.8 |
| 20260502034554 | 50 | 27 | 7.0 | 16.5 | 0.01 | 0.02 | 0.01 | 74 | 1019.8 |
| 20260502034051 | 50 | 84 | 8.7 | 16.5 | 0.01 | 0.02 | 0.01 | 75 | 1019.7 |
| 20260502033548 | 50 | 26 | 6.1 | 16.5 | 0.01 | 0.02 | 0.01 | 76 | 1019.6 |
| 20260502033048 | 50 | 38 | 7.8 | 16.5 | 0.01 | 0.02 | 0.01 | 77 | 1019.5 |
| 20260502032546 | 50 | 36 | 8.7 | 14.8 | 0.01 | 0.02 | 0.01 | 75 | 1019.6 |
| 20260502032045 | 51 | 42 | 5.2 | 13.9 | 0.01 | 0.02 | 0.01 | 74 | 1019.5 |
| 20260502031549 | 51 | 69 | 7.0 | 15.6 | 0.00 | 0.01 | 0.00 | 74 | 1019.5 |
| 20260502031044 | 51 | 36 | 6.1 | 15.6 | 0.00 | 0.01 | 0.00 | 73 | 1019.5 |
| 20260502030544 | 51 | 68 | 7.8 | 13.9 | 0.00 | 0.01 | 0.00 | 72 | 1019.5 |
| 20260502030043 | 51 | 15 | 8.7 | 13.9 | 0.00 | 0.01 | 0.00 | 72 | 1019.5 |
| 20260502025544 | 51 | 44 | 6.1 | 13.0 | 0.00 | 0.01 | 0.00 | 72 | 1019.6 |
| 20260502025042 | 51 | 49 | 6.1 | 15.6 | 0.00 | 0.01 | 0.00 | 72 | 1019.7 |
| 20260502024544 | 51 | 32 | 7.8 | 15.6 | 0.00 | 0.01 | 0.00 | 71 | 1019.7 |
| 20260502024041 | 51 | 37 | 7.8 | 13.9 | 0.00 | 0.01 | 0.00 | 70 | 1019.6 |
| 20260502023543 | 51 | 46 | 5.2 | 15.6 | 0.00 | 0.01 | 0.00 | 70 | 1019.6 |
| 20260502023049 | 51 | 29 | 9.6 | 16.5 | 0.00 | 0.01 | 0.00 | 69 | 1019.7 |
| 20260502022539 | 51 | 28 | 8.7 | 16.5 | 0.00 | 0.01 | 0.00 | 70 | 1019.6 |
| 20260502022039 | 51 | 61 | 7.0 | 16.5 | 0.00 | 0.01 | 0.00 | 70 | 1019.6 |
| 20260502021538 | 51 | 40 | 8.7 | 13.9 | 0.00 | 0.01 | 0.00 | 70 | 1019.6 |
| 20260502021037 | 51 | 44 | 2.6 | 10.4 | 0.00 | 0.01 | 0.00 | 70 | 1019.6 |
| 20260502020537 | 51 | 57 | 5.2 | 13.0 | 0.00 | 0.01 | 0.00 | 70 | 1019.6 |
| 20260502020044 | 51 | 71 | 4.3 | 12.2 | 0.00 | 0.01 | 0.00 | 70 | 1019.7 |
| 20260502015537 | 51 | 67 | 6.1 | 12.2 | 0.00 | 0.01 | 0.00 | 70 | 1019.6 |
| 20260502015036 | 51 | 20 | 6.1 | 12.2 | 0.00 | 0.01 | 0.00 | 71 | 1019.7 |
| 20260502014547 | 51 | 27 | 6.1 | 11.3 | 0.00 | 0.01 | 0.00 | 71 | 1019.7 |
| 20260502014035 | 51 | 75 | 6.1 | 12.2 | 0.00 | 0.01 | 0.00 | 72 | 1019.7 |
| 20260502013536 | 51 | 34 | 3.5 | 9.6 | 0.00 | 0.01 | 0.00 | 72 | 1019.8 |
| 20260502013034 | 51 | 41 | 4.3 | 12.2 | 0.00 | 0.01 | 0.00 | 72 | 1019.7 |
| 20260502012534 | 51 | 71 | 6.1 | 12.2 | 0.00 | 0.01 | 0.00 | 72 | 1019.7 |
| 20260502012036 | 51 | 48 | 6.1 | 13.9 | 0.00 | 0.01 | 0.00 | 72 | 1019.7 |
| 20260502011534 | 51 | 57 | 7.8 | 13.9 | 0.00 | 0.01 | 0.00 | 72 | 1019.7 |
| 20260502011035 | 51 | 72 | 5.2 | 13.0 | 0.00 | 0.01 | 0.00 | 72 | 1019.8 |
| 20260502010532 | 51 | 55 | 5.2 | 14.8 | 0.00 | 0.01 | 0.00 | 72 | 1019.8 |
| 20260502010034 | 51 | 49 | 5.2 | 14.8 | 0.00 | 0.01 | 0.00 | 72 | 1019.9 |
| 20260502005531 | 51 | 44 | 7.0 | 13.9 | 0.00 | 0.01 | 0.00 | 72 | 1019.7 |
| 20260502005033 | 51 | 44 | 6.1 | 13.0 | 0.00 | 0.01 | 0.00 | 71 | 1019.7 |
| 20260502004534 | 51 | 94 | 4.3 | 13.0 | 0.00 | 0.01 | 0.00 | 71 | 1019.8 |
| 20260502004029 | 51 | 57 | 7.0 | 15.6 | 0.00 | 0.01 | 0.00 | 70 | 1019.8 |
| 20260502003531 | 51 | 22 | 7.8 | 18.2 | 0.00 | 0.01 | 0.00 | 69 | 1019.7 |
| 20260502003028 | 51 | 44 | 6.1 | 13.9 | 0.00 | 0.01 | 0.00 | 69 | 1019.7 |
| 20260502002528 | 51 | 34 | 5.2 | 13.9 | 0.00 | 0.01 | 0.00 | 69 | 1019.9 |
| 20260502002028 | 51 | 67 | 6.1 | 17.4 | 0.00 | 0.01 | 0.00 | 69 | 1019.9 |
| 20260502001540 | 52 | 55 | 8.7 | 16.5 | 0.00 | 0.01 | 0.00 | 70 | 1020.0 |